Total_Precipitation_Accumulation
0.98 0.93 0.89 0.79 0.83 0.96 1.20 1.41 1.76 1.50 1.01 0.74 0.72 0.65 0.63 0.57 0.55 0.57 0.52 0.46 0.40 0.35 0.39 0.35 0.37 0.50 0.77 1.02 1.27 1.41 1.62 1.93 2.06 2.25 2.24 2.33 2.38 2.30
0.82 0.90 0.88 0.84 0.93 1.02 1.12 1.19 1.47 1.67 1.34 0.76 0.80 0.86 0.84 0.70 0.56 0.43 0.34 0.42 0.44 0.37 0.33 0.32 0.30 0.32 0.36 0.45 0.57 0.72 0.92 1.18 1.54 1.93 2.08 2.06 2.04 2.29
0.53 0.70 0.72 0.74 0.88 0.98 1.09 1.29 1.40 1.52 1.37 0.72 0.59 0.51 0.43 0.34 0.26 0.27 0.25 0.20 0.18 0.28 0.33 0.36 0.40 0.40 0.38 0.40 0.45 0.52 0.63 0.69 0.79 1.15 1.66 1.98 2.29 2.15
0.34 0.50 0.50 0.70 0.84 0.88 1.02 1.04 1.03 0.98 1.14 0.72 0.41 0.37 0.30 0.26 0.25 0.32 0.31 0.36 0.39 0.40 0.43 0.37 0.42 0.49 0.50 0.50 0.50 0.53 0.56 0.66 0.75 0.75 0.92 1.41 1.64 1.82
0.50 0.51 0.45 0.58 0.61 0.57 0.65 0.69 0.74 0.88 1.02 1.10 0.70 0.54 0.40 0.37 0.40 0.44 0.41 0.38 0.37 0.52 0.59 0.58 0.57 0.60 0.62 0.58 0.59 0.69 0.80 0.83 0.87 0.90 1.05 1.09 1.21 1.48
0.70 0.64 0.65 0.66 0.60 0.61 0.71 0.76 0.84 1.00 1.03 0.98 0.90 0.72 0.55 0.46 0.59 0.55 0.47 0.47 0.49 0.46 0.58 0.61 0.66 0.64 0.64 0.64 0.65 0.65 0.68 0.77 0.83 0.94 1.12 1.26 1.30 1.25
1.00 0.97 0.88 0.82 0.78 0.75 0.75 0.73 1.03 1.11 1.25 1.37 1.22 1.12 0.97 0.78 0.75 0.75 0.85 0.69 0.55 0.45 0.39 0.46 0.60 0.65 0.70 0.83 0.81 0.78 0.89 1.09 1.12 1.16 1.21 1.40 1.68 1.61
1.33 1.12 1.06 1.18 1.00 0.94 0.89 0.86 1.01 1.31 1.49 1.52 1.42 1.12 0.74 0.73 0.70 0.84 1.06 1.14 0.93 0.43 0.50 0.56 0.82 0.91 0.93 1.00 1.15 1.01 1.08 1.14 1.35 1.53 1.58 1.56 1.53 1.80
1.80 1.68 1.52 1.27 1.41 1.32 1.47 1.44 1.46 1.59 1.53 1.32 1.15 0.99 0.91 0.88 1.22 1.39 1.28 1.37 1.14 0.71 0.79 0.85 0.87 0.90 0.93 0.92 1.13 1.08 1.08 1.00 0.95 0.96 1.12 1.34 1.61 1.77
1.49 1.43 1.49 1.54 1.56 1.50 1.56 1.88 1.66 1.40 1.35 1.36 1.43 1.35 1.41 1.51 1.81 2.00 1.90 1.80 1.45 1.02 0.86 1.02 0.57 0.67 0.68 0.70 1.04 0.91 0.85 0.88 0.88 0.87 0.87 0.93 1.11 1.35
1.46 1.38 1.47 1.37 1.56 1.59 1.64 1.82 1.70 1.56 1.71 1.83 1.87 1.93 1.90 1.77 1.69 1.93 2.05 1.92 1.60 0.88 0.74 0.96 0.64 0.65 0.67 0.61 0.69 0.89 0.73 0.74 0.85 0.88 0.91 0.96 0.96 1.00
1.48 1.31 1.63 1.17 1.47 1.62 1.27 1.08 1.11 1.00 1.24 1.29 1.32 1.31 1.20 1.17 1.51 1.41 1.76 2.51 1.89 1.54 0.76 1.35 0.98 0.95 1.29 0.51 0.51 0.73 0.70 0.70 0.64 0.59 0.60 0.64 0.74 0.76
0.78 0.79 0.84 1.27 1.20 1.11 1.11 1.02 1.20 1.24 1.43 1.21 1.12 1.14 1.14 1.07 1.07 1.26 1.65 2.68 2.97 2.27 1.22 2.32 1.98 1.04 1.54 0.84 0.53 0.60 0.51 0.59 0.68 0.66 0.66 0.65 0.65 0.72
0.70 0.76 1.10 1.52 0.91 0.82 0.89 1.08 1.28 1.19 0.83 0.81 1.01 1.08 1.06 1.07 1.16 1.30 1.44 1.67 1.95 2.28 1.55 2.04 2.88 1.63 1.97 1.49 0.88 0.70 0.67 0.65 0.76 0.74 0.70 0.88 1.13 1.19
0.39 0.71 0.86 0.72 0.65 0.77 1.02 1.04 0.90 0.74 0.97 1.32 1.39 1.41 1.40 1.51 1.56 1.48 1.40 1.35 1.40 1.43 1.55 1.48 1.88 1.73 2.01 1.97 1.35 0.86 1.01 0.95 1.00 1.10 0.98 0.86 0.83 0.88
0.60 0.56 0.44 0.38 0.38 0.39 0.55 0.47 0.32 0.46 0.90 1.24 1.35 1.33 1.43 1.46 1.39 1.44 1.69 1.49 1.59 1.33 1.11 1.05 1.22 1.53 1.71 1.27 1.48 1.25 0.98 1.41 1.31 1.38 1.40 1.02 0.96 0.89
0.59 0.41 0.48 0.38 0.35 0.31 0.23 0.23 0.34 0.61 0.91 0.86 1.07 1.15 1.28 1.43 1.46 1.53 1.86 1.86 1.77 1.33 1.09 0.94 0.92 1.00 1.14 1.30 1.53 1.28 1.40 1.33 1.38 1.73 1.60 1.31 1.34 1.33
0.84 0.54 0.46 0.46 0.58 0.69 0.69 0.73 0.76 0.87 0.82 1.02 1.15 1.23 1.44 1.54 1.69 1.79 1.83 1.71 1.53 1.17 1.05 0.91 0.92 1.04 1.09 0.96 1.17 1.42 1.38 1.52 1.82 1.97 1.94 1.44 1.45 1.65
1.03 0.91 0.78 0.68 0.68 0.68 0.73 0.93 1.08 1.10 1.43 1.72 1.71 1.60 1.62 1.78 1.97 1.96 1.70 1.51 1.29 1.00 0.79 0.75 1.10 1.56 1.81 1.00 0.73 1.13 1.68 1.56 1.42 1.67 1.74 1.51 1.52 1.39
0.96 0.97 1.04 1.05 1.05 1.06 1.07 1.21 1.32 1.35 1.43 1.51 1.72 1.78 1.95 2.17 2.04 1.74 1.40 1.28 1.22 1.09 0.91 0.73 0.83 1.19 2.04 1.76 1.64 1.31 1.31 1.66 1.55 1.55 1.27 1.12 1.28 1.24
0.98 1.10 1.16 1.21 1.27 1.37 1.45 1.60 1.77 1.97 2.15 2.19 1.95 2.06 2.06 2.26 1.93 1.45 1.28 1.11 1.29 1.38 1.19 0.69 0.63 0.96 1.47 1.72 1.69 1.05 1.24 1.33 1.39 1.90 1.64 1.53 1.15 0.98
0.93 1.09 1.18 1.34 1.40 1.52 1.70 1.96 2.19 2.21 2.18 2.10 2.16 2.17 1.97 1.91 1.78 1.42 1.30 1.48 1.26 1.19 1.14 0.95 1.02 1.22 1.40 1.69 1.23 0.89 0.93 0.97 0.96 0.97 1.23 1.72 2.03 2.12
0.99 1.13 1.25 1.36 1.38 1.43 1.61 1.85 2.11 2.05 1.96 2.10 2.06 1.89 1.73 1.61 1.15 1.24 1.28 1.25 1.34 1.48 1.22 1.14 1.07 1.10 1.16 1.23 1.24 1.15 0.93 0.93 0.78 0.73 1.09 1.05 1.14 1.35